Providence, RI

7:32 PM EST on January 17, 2018 (GMT -0500)
Green State

Weather History for KPVD - March, 2014

Change the Weather History Date:

Tuesday, March 11, 2014

  Actual Average Record
Temperature  
Mean Temperature 47 °F 37 °F  
Max Temperature 62 °F 46 °F 71 °F (1990)
Min Temperature 32 °F 28 °F 7 °F (1939)
Degree Days  
Heating Degree Days 18 28  
Month to date heating degree days 373 320  
Since 1 July heating degree days 4645 4382  
Cooling Degree Days 0 0  
Month to date cooling degree days 0 0  
Year to date cooling degree days 0 0  
Moisture  
Dew Point 29 °F    
Average Humidity 58    
Maximum Humidity 92    
Minimum Humidity 23    
Precipitation  
Precipitation 0.00 in 0.14 in 1.96 in (2000)
Month to date precipitation T 1.61  
Year to date precipitation 8.40 8.76  
Snow  
Snow 0.00 in 0.20 in 4.20 in (1924)
Month to date snowfall 0.1 2.7  
Since 1 July snowfall 42.2 30.4  
Snow Depth 0.00 in    
Sea Level Pressure  
Sea Level Pressure 29.61 in    
Wind  
Wind Speed 7 mph (WSW)    
Max Wind Speed 21 mph    
Max Gust Speed 28 mph    
Visibility 8 miles    
Events      
T = Trace of Precipitation, MM = Missing Value Source: NWS Daily Summary

Daily Weather History Graph

Daily Weather History Graph

Search for Another Location

Airport or City:

Trip Planner

Search our weather history database for the weather conditions in past years. The results will help you decide how hot, cold, wet, or windy it might be!

Date:

Astronomy

Mar. 11, 2014 Rise Set
Actual Time 7:04 AM EDT 6:47 PM EDT
Civil Twilight 6:36 AM EDT 7:15 PM EDT
Nautical Twilight 6:04 AM EDT 7:47 PM EDT
Astronomical Twilight 5:31 AM EDT 8:20 PM EDT
Moon 2:18 PM EDT (3/11) 3:58 AM EDT (3/11)
Length of Visible Light 12h 38m
Length of Day
11h 43m
Waxing Gibbous, 78% of the Moon is Illuminated
Mar 11
Waxing Gibbous
Mar 16
Full
Mar 23
Last Quarter
Mar 30
New
Apr 7
First Quarter

Hourly Weather History & Observations

Time (EDT) Temp. Windchill Dew Point Humidity Pressure Visibility Wind Dir Wind Speed Gust Speed Precip Events Conditions
12:51 AM 37.0 °F 33.3 °F 30.0 °F 76% 29.63 in 8.0 mi SSE 4.6 mph - N/A   Overcast
1:51 AM 37.0 °F 31.0 °F 32.0 °F 82% 29.60 in 8.0 mi South 8.1 mph - N/A   Overcast
2:51 AM 37.9 °F 31.5 °F 34.0 °F 86% 29.58 in 7.0 mi South 9.2 mph - N/A   Overcast
3:51 AM 36.0 °F 30.3 °F 34.0 °F 93% 29.54 in 6.0 mi South 6.9 mph - N/A   Partly Cloudy
4:51 AM 35.1 °F 32.2 °F 33.1 °F 92% 29.53 in 4.0 mi SSW 3.5 mph - N/A   Clear
5:51 AM 35.1 °F - 33.1 °F 92% 29.54 in 4.0 mi Calm Calm - N/A   Mostly Cloudy
6:51 AM 35.1 °F - 33.1 °F 92% 29.55 in 4.0 mi Calm Calm - N/A   Overcast
7:51 AM 37.9 °F 32.1 °F 33.1 °F 83% 29.57 in 6.0 mi West 8.1 mph - N/A   Mostly Cloudy
8:51 AM 41.0 °F 39.0 °F 34.0 °F 76% 29.59 in 6.0 mi WSW 3.5 mph - N/A   Overcast
9:51 AM 45.0 °F - 33.1 °F 63% 29.59 in 8.0 mi Calm Calm - N/A   Overcast
10:51 AM 48.9 °F - 32.0 °F 52% 29.59 in 9.0 mi WSW 6.9 mph - N/A   Mostly Cloudy
11:51 AM 52.0 °F - 33.1 °F 49% 29.57 in 10.0 mi WNW 8.1 mph - N/A   Mostly Cloudy
12:51 PM 54.0 °F - 32.0 °F 43% 29.57 in 10.0 mi West 6.9 mph - N/A   Mostly Cloudy
1:51 PM 59.0 °F - 26.1 °F 28% 29.57 in 10.0 mi WNW 16.1 mph 27.6 mph N/A   Mostly Cloudy
2:51 PM 61.0 °F - 28.9 °F 30% 29.57 in 10.0 mi West 8.1 mph - N/A   Mostly Cloudy
3:51 PM 61.0 °F - 24.1 °F 24% 29.57 in 10.0 mi West 17.3 mph 25.3 mph N/A   Mostly Cloudy
4:51 PM 60.1 °F - 23.0 °F 24% 29.59 in 10.0 mi WNW 12.7 mph 23.0 mph N/A   Mostly Cloudy
5:51 PM 57.9 °F - 24.1 °F 27% 29.62 in 10.0 mi WNW 11.5 mph - N/A   Mostly Cloudy
6:51 PM 54.0 °F - 24.1 °F 31% 29.65 in 10.0 mi WNW 6.9 mph - N/A   Mostly Cloudy
7:51 PM 51.1 °F - 24.1 °F 35% 29.68 in 10.0 mi Calm Calm - N/A   Mostly Cloudy
8:51 PM 46.9 °F - 25.0 °F 42% 29.70 in 10.0 mi Variable 3.5 mph - N/A   Mostly Cloudy
9:51 PM 45.0 °F 41.8 °F 26.1 °F 48% 29.72 in 10.0 mi West 5.8 mph - N/A   Mostly Cloudy
10:51 PM 43.0 °F 40.3 °F 26.1 °F 51% 29.72 in 10.0 mi West 4.6 mph - N/A   Overcast
11:51 PM 43.0 °F 41.3 °F 26.1 °F 51% 29.72 in 10.0 mi West 3.5 mph - N/A   Overcast